VKG1648 ESSA-LGRP

Flight info

Callsign VKG1648
Flight time N/A
Altitude 35000
Route BABAP T316 NEPVA DCT OLANU/N0475F360 DCT PENOR/N0478F370 N133 IRLUN DCT PENEX DCT NUBLI DCT ORTEB DCT LENOV DCT NARKA DCT ORA DCT GANNA DCT SODGO DCT OVDOT DCT LOMOS DCT WAK DCT NIKTI DCT STINO DCT MES UN139 LURUS UL995 CODIC
Aircraft A339/H-SDE1E2E3GHIJ1J3J4J5RWXYZ/LB2D1G1

Departure

Time 2026-05-08 08:13
Airport Stockholm-Arlanda Airport (ESSA)

Arrival

Time N/A
Airport Rhodes International Airport "Diagoras" (LGRP)
Time Latitude Longitude Altitude Speed Heading
2026-05-08 07:44 59.65334 17.92894 118 ft 0 kts 101°
2026-05-08 08:02 59.65336 17.92871 118 ft 2 kts 89°
2026-05-08 08:03 59.65333 17.92841 118 ft 2 kts 66°
2026-05-08 08:03 59.65326 17.92816 118 ft 2 kts 47°
2026-05-08 08:03 59.65315 17.92797 118 ft 2 kts 28°
2026-05-08 08:03 59.65300 17.92786 118 ft 2 kts
2026-05-08 08:04 59.65286 17.92785 118 ft 2 kts 349°
2026-05-08 08:04 59.65272 17.92793 118 ft 0 kts 332°
2026-05-08 08:04 59.65268 17.92797 118 ft 0 kts 331°
2026-05-08 08:05 59.65269 17.92797 118 ft 0 kts 331°
2026-05-08 08:07 59.65270 17.92795 118 ft 1 kts 332°
2026-05-08 08:07 59.65281 17.92785 118 ft 3 kts 333°
2026-05-08 08:08 59.65373 17.92688 117 ft 9 kts 332°
2026-05-08 08:08 59.65436 17.92621 117 ft 11 kts 332°
2026-05-08 08:08 59.65512 17.92549 117 ft 12 kts 338°
2026-05-08 08:09 59.65599 17.92494 116 ft 13 kts 345°
2026-05-08 08:09 59.65662 17.92462 116 ft 14 kts 345°
2026-05-08 08:09 59.65864 17.92456 118 ft 11 kts 11°
2026-05-08 08:10 59.65946 17.92485 119 ft 12 kts 10°
2026-05-08 08:10 59.66028 17.92515 120 ft 11 kts 11°
2026-05-08 08:10 59.66110 17.92545 122 ft 11 kts 10°
2026-05-08 08:10 59.66191 17.92574 123 ft 11 kts 11°
2026-05-08 08:11 59.66271 17.92604 124 ft 11 kts 10°
2026-05-08 08:11 59.66351 17.92633 126 ft 11 kts 11°
2026-05-08 08:11 59.66429 17.92653 127 ft 11 kts 360°
2026-05-08 08:11 59.66507 17.92621 128 ft 11 kts 341°
2026-05-08 08:12 59.66581 17.92569 129 ft 11 kts 334°
2026-05-08 08:12 59.66612 17.92442 129 ft 11 kts 259°
2026-05-08 08:12 59.66546 17.92344 128 ft 16 kts 193°
2026-05-08 08:12 59.66235 17.92231 124 ft 77 kts 190°
2026-05-08 08:13 59.65508 17.91965 114 ft 132 kts 190°
2026-05-08 08:13 59.64440 17.91575 142 ft 174 kts 190°
2026-05-08 08:13 59.63254 17.91121 736 ft 171 kts 189°
2026-05-08 08:13 59.62094 17.90704 1332 ft 173 kts 187°
2026-05-08 08:14 59.60846 17.90476 1760 ft 186 kts 180°
2026-05-08 08:14 59.59504 17.90429 2138 ft 203 kts 181°
2026-05-08 08:14 59.58065 17.90281 2729 ft 210 kts 181°
2026-05-08 08:14 59.56604 17.90492 3354 ft 215 kts 171°
2026-05-08 08:15 59.55053 17.90460 3744 ft 233 kts 186°
2026-05-08 08:15 59.53384 17.89932 4127 ft 252 kts 188°
2026-05-08 08:15 59.51615 17.89376 4685 ft 262 kts 187°
2026-05-08 08:15 59.49805 17.88878 5432 ft 264 kts 186°
2026-05-08 08:16 59.47984 17.88437 6141 ft 267 kts 186°
2026-05-08 08:16 59.46130 17.88025 6756 ft 273 kts 186°
2026-05-08 08:16 59.44237 17.87625 7407 ft 278 kts 186°
2026-05-08 08:16 59.42289 17.87219 8087 ft 281 kts 186°
2026-05-08 08:17 59.40342 17.86813 8757 ft 284 kts 186°
2026-05-08 08:17 59.38367 17.86398 9442 ft 286 kts 186°
2026-05-08 08:17 59.36392 17.85986 10121 ft 289 kts 187°
2026-05-08 08:17 59.34393 17.85572 10731 ft 293 kts 187°
2026-05-08 08:18 59.32314 17.85138 11050 ft 309 kts 187°
2026-05-08 08:18 59.30119 17.84681 11340 ft 325 kts 187°
2026-05-08 08:18 59.27789 17.84197 11630 ft 341 kts 187°
2026-05-08 08:18 59.25388 17.83702 11904 ft 356 kts 187°
2026-05-08 08:19 59.22857 17.83181 12184 ft 371 kts 187°
2026-05-08 08:19 59.20249 17.82644 12591 ft 382 kts 187°
2026-05-08 08:19 59.17582 17.82097 13219 ft 386 kts 187°
2026-05-08 08:19 59.14893 17.81548 13847 ft 390 kts 187°
2026-05-08 08:20 59.12204 17.80997 14469 ft 393 kts 187°
2026-05-08 08:20 59.09436 17.80430 15105 ft 397 kts 187°
2026-05-08 08:20 59.06697 17.79870 15715 ft 401 kts 187°
2026-05-08 08:20 59.03886 17.79294 16316 ft 404 kts 187°
2026-05-08 08:21 59.01107 17.78728 16911 ft 407 kts 187°
2026-05-08 08:21 58.98289 17.78154 17464 ft 411 kts 187°
2026-05-08 08:21 58.95436 17.77576 17734 ft 412 kts 187°
2026-05-08 08:21 58.92586 17.77002 17977 ft 413 kts 187°
2026-05-08 08:22 58.89693 17.76419 18231 ft 415 kts 187°
2026-05-08 08:22 58.86818 17.75840 18318 ft 415 kts 187°
2026-05-08 08:22 58.83935 17.75259 18326 ft 415 kts 187°
2026-05-08 08:22 58.81076 17.74684 18343 ft 415 kts 187°
2026-05-08 08:23 58.78183 17.74101 18430 ft 420 kts 187°
2026-05-08 08:23 58.75275 17.73519 18996 ft 423 kts 187°
2026-05-08 08:23 58.72375 17.72938 19642 ft 424 kts 186°
2026-05-08 08:23 58.69434 17.72350 20192 ft 427 kts 186°
2026-05-08 08:24 58.66500 17.71765 20701 ft 431 kts 186°
2026-05-08 08:24 58.63504 17.71166 21211 ft 434 kts 186°
2026-05-08 08:24 58.60519 17.70571 21698 ft 437 kts 186°
2026-05-08 08:24 58.57500 17.69972 22175 ft 440 kts 186°
2026-05-08 08:25 58.54466 17.69370 22639 ft 443 kts 186°
2026-05-08 08:25 58.51392 17.68761 23069 ft 446 kts 186°
2026-05-08 08:25 58.48311 17.68154 23513 ft 449 kts 186°
2026-05-08 08:25 58.45193 17.67540 23942 ft 452 kts 186°
2026-05-08 08:26 58.42062 17.66920 24375 ft 454 kts 186°
2026-05-08 08:26 58.38917 17.66299 24818 ft 456 kts 185°
2026-05-08 08:26 58.35775 17.65683 25248 ft 458 kts 185°
2026-05-08 08:26 58.32614 17.65067 25661 ft 460 kts 185°
2026-05-08 08:27 58.29443 17.64449 26041 ft 463 kts 185°
2026-05-08 08:27 58.26252 17.63827 26415 ft 466 kts 185°
2026-05-08 08:27 58.22986 17.63190 26796 ft 468 kts 185°
2026-05-08 08:27 58.19773 17.62566 27150 ft 470 kts 185°
2026-05-08 08:28 58.16490 17.61931 27487 ft 473 kts 185°
2026-05-08 08:28 58.13251 17.61304 27831 ft 475 kts 185°
2026-05-08 08:28 58.09948 17.60666 28179 ft 477 kts 185°
2026-05-08 08:28 58.06644 17.60027 28511 ft 479 kts 185°
2026-05-08 08:29 58.03325 17.59389 28827 ft 481 kts 185°
2026-05-08 08:29 58.00012 17.58754 29232 ft 481 kts 185°
2026-05-08 08:29 57.96680 17.58112 29740 ft 478 kts 185°
2026-05-08 08:29 57.93353 17.57472 30201 ft 477 kts 185°
2026-05-08 08:30 57.90073 17.56845 30626 ft 476 kts 185°
2026-05-08 08:30 57.86788 17.56216 30997 ft 475 kts 185°
2026-05-08 08:30 57.80200 17.54959 31710 ft 475 kts 184°
2026-05-08 08:31 57.76934 17.54340 32050 ft 475 kts 184°
2026-05-08 08:31 57.73649 17.53718 32423 ft 474 kts 184°
2026-05-08 08:31 57.70404 17.53105 32809 ft 472 kts 184°
2026-05-08 08:31 57.67136 17.52487 33188 ft 471 kts 184°
2026-05-08 08:32 57.63905 17.51876 33549 ft 469 kts 184°
2026-05-08 08:32 57.60684 17.51270 33891 ft 468 kts 184°
2026-05-08 08:32 57.57446 17.50662 34222 ft 467 kts 184°
2026-05-08 08:32 57.54234 17.50058 34550 ft 466 kts 184°
2026-05-08 08:33 57.50987 17.49452 34871 ft 465 kts 184°
2026-05-08 08:33 57.47816 17.48862 35112 ft 464 kts 184°
2026-05-08 08:33 57.44603 17.48269 35329 ft 463 kts 184°
2026-05-08 08:33 57.41414 17.47679 35494 ft 463 kts 184°
2026-05-08 08:34 57.38200 17.47086 35629 ft 464 kts 184°
2026-05-08 08:34 57.34987 17.46491 35749 ft 465 kts 184°
2026-05-08 08:34 57.31821 17.45905 35874 ft 466 kts 185°
2026-05-08 08:34 57.28590 17.45309 36000 ft 466 kts 185°
2026-05-08 08:35 57.25371 17.44714 36135 ft 467 kts 185°
2026-05-08 08:35 57.22146 17.44122 36285 ft 467 kts 185°
2026-05-08 08:35 57.18944 17.43532 36463 ft 467 kts 185°
2026-05-08 08:35 57.15691 17.42935 36655 ft 468 kts 185°
2026-05-08 08:36 57.12451 17.42340 37123 ft 468 kts 185°
2026-05-08 08:36 57.09256 17.41757 37240 ft 469 kts 185°
2026-05-08 08:36 57.02788 17.40575 37288 ft 469 kts 185°
2026-05-08 08:37 56.96294 17.39392 37275 ft 470 kts 185°
2026-05-08 08:37 56.89799 17.38215 37284 ft 470 kts 185°
2026-05-08 08:38 56.83326 17.37045 37270 ft 470 kts 185°
2026-05-08 08:38 56.76820 17.35874 37264 ft 469 kts 185°
2026-05-08 08:39 56.70325 17.34710 37270 ft 470 kts 185°
2026-05-08 08:39 56.63831 17.33549 37281 ft 469 kts 184°
2026-05-08 08:40 56.57368 17.32399 37272 ft 468 kts 185°
2026-05-08 08:40 56.50884 17.31249 37269 ft 469 kts 185°
2026-05-08 08:41 56.44408 17.30102 37266 ft 468 kts 185°
2026-05-08 08:41 56.37956 17.28965 37252 ft 468 kts 185°
2026-05-08 08:42 56.31495 17.27829 37268 ft 468 kts 185°
2026-05-08 08:42 56.25028 17.26697 37256 ft 468 kts 185°
2026-05-08 08:43 56.18555 17.25567 37247 ft 468 kts 185°
2026-05-08 08:43 56.12108 17.24445 37250 ft 469 kts 185°
2026-05-08 08:44 56.05640 17.23326 37250 ft 468 kts 185°
2026-05-08 08:44 55.99198 17.22214 37242 ft 468 kts 185°
2026-05-08 08:45 55.92722 17.21096 37248 ft 468 kts 185°
2026-05-08 08:45 55.86232 17.19980 37239 ft 469 kts 185°
2026-05-08 08:46 55.79728 17.18864 37244 ft 468 kts 185°
2026-05-08 08:46 55.73255 17.17820 37235 ft 469 kts 182°
2026-05-08 08:47 55.66777 17.18084 37234 ft 469 kts 174°
2026-05-08 08:47 55.60396 17.20137 37233 ft 469 kts 165°
2026-05-08 08:48 55.54256 17.23936 37231 ft 469 kts 156°
2026-05-08 08:48 55.48349 17.28692 37235 ft 469 kts 156°
2026-05-08 08:49 55.42458 17.33431 37231 ft 469 kts 156°
2026-05-08 08:49 55.36504 17.38197 37230 ft 469 kts 156°
2026-05-08 08:50 55.30609 17.42899 37232 ft 469 kts 156°
2026-05-08 08:50 55.24657 17.47628 37227 ft 469 kts 156°
2026-05-08 08:51 55.18736 17.52297 37224 ft 469 kts 156°
2026-05-08 08:51 55.12783 17.56868 37223 ft 469 kts 156°
2026-05-08 08:52 55.06825 17.61419 37218 ft 469 kts 156°
2026-05-08 08:52 55.00856 17.65973 37214 ft 469 kts 157°
2026-05-08 08:53 54.94879 17.70565 37212 ft 469 kts 156°
2026-05-08 08:53 54.88970 17.75247 37208 ft 469 kts 156°
2026-05-08 08:54 54.82960 17.79989 37205 ft 469 kts 156°
2026-05-08 08:54 54.77002 17.84656 37194 ft 468 kts 156°
2026-05-08 08:55 54.71045 17.89290 37188 ft 469 kts 156°
2026-05-08 08:55 54.65033 17.93949 37181 ft 469 kts 157°
2026-05-08 08:56 54.59062 17.98562 37173 ft 469 kts 157°
2026-05-08 08:56 54.53085 18.03161 37176 ft 469 kts 157°
2026-05-08 08:57 54.47144 18.07721 37170 ft 469 kts 157°
2026-05-08 08:57 54.41129 18.12322 37167 ft 469 kts 157°
2026-05-08 08:58 54.35158 18.16877 37159 ft 469 kts 157°
2026-05-08 08:58 54.29179 18.21421 37160 ft 469 kts 157°
2026-05-08 08:59 54.23212 18.25902 37157 ft 469 kts 157°
2026-05-08 08:59 54.17230 18.30372 37153 ft 469 kts 157°
2026-05-08 09:00 54.11221 18.34847 37150 ft 469 kts 157°
2026-05-08 09:00 54.05246 18.39284 37151 ft 469 kts 157°
2026-05-08 09:01 53.99233 18.43737 37144 ft 469 kts 157°
2026-05-08 09:01 53.93234 18.48167 37144 ft 469 kts 157°
2026-05-08 09:02 53.87270 18.52559 37141 ft 469 kts 157°
2026-05-08 09:02 53.81208 18.57006 37141 ft 469 kts 157°
2026-05-08 09:03 53.75189 18.61323 37141 ft 469 kts 160°
2026-05-08 09:03 53.69036 18.64926 37146 ft 468 kts 162°
2026-05-08 09:04 53.62835 18.68484 37143 ft 468 kts 162°
2026-05-08 09:04 53.56659 18.72018 37142 ft 468 kts 162°
2026-05-08 09:05 53.50455 18.75546 37141 ft 469 kts 162°
2026-05-08 09:05 53.44253 18.79061 37138 ft 468 kts 162°
2026-05-08 09:06 53.38067 18.82552 37131 ft 468 kts 162°
2026-05-08 09:06 53.31874 18.86038 37124 ft 467 kts 162°
2026-05-08 09:07 53.25697 18.89506 37123 ft 466 kts 162°
2026-05-08 09:07 53.19494 18.92978 37118 ft 466 kts 162°
2026-05-08 09:08 53.13324 18.96421 37120 ft 467 kts 162°
2026-05-08 09:08 53.07146 18.99857 37121 ft 466 kts 163°
2026-05-08 09:09 53.00985 19.03272 37121 ft 465 kts 163°
2026-05-08 09:09 52.94818 19.06682 37118 ft 465 kts 163°
2026-05-08 09:10 52.88678 19.10063 37123 ft 465 kts 163°
2026-05-08 09:10 52.82436 19.13492 37119 ft 466 kts 163°
2026-05-08 09:11 52.76253 19.16880 37115 ft 466 kts 163°
2026-05-08 09:11 52.70106 19.20238 37114 ft 465 kts 163°
2026-05-08 09:12 52.63952 19.23588 37114 ft 465 kts 163°
2026-05-08 09:12 52.57797 19.26929 37104 ft 465 kts 163°
2026-05-08 09:13 52.51599 19.30215 37110 ft 466 kts 163°
2026-05-08 09:13 52.45417 19.33415 37109 ft 467 kts 163°
2026-05-08 09:14 52.39196 19.36629 37106 ft 467 kts 163°
2026-05-08 09:14 52.32977 19.39838 37101 ft 466 kts 163°
2026-05-08 09:15 52.26778 19.43030 37102 ft 466 kts 163°
2026-05-08 09:15 52.20583 19.46211 37098 ft 466 kts 163°
2026-05-08 09:16 52.14387 19.49383 37093 ft 466 kts 164°
2026-05-08 09:16 52.08162 19.52559 37097 ft 467 kts 164°
2026-05-08 09:17 52.01944 19.55723 37091 ft 467 kts 164°
2026-05-08 09:17 51.95665 19.58908 37093 ft 468 kts 163°
2026-05-08 09:18 51.89431 19.62064 37091 ft 468 kts 163°
2026-05-08 09:18 51.83236 19.65189 37089 ft 467 kts 165°
2026-05-08 09:19 51.76986 19.68333 37088 ft 467 kts 165°
2026-05-08 09:19 51.70773 19.71449 37088 ft 467 kts 165°
2026-05-08 09:20 51.64515 19.74579 37088 ft 467 kts 165°
2026-05-08 09:20 51.58277 19.77689 37087 ft 468 kts 165°
2026-05-08 09:21 51.52056 19.80781 37087 ft 468 kts 165°
2026-05-08 09:23 51.30254 19.91946 37085 ft 469 kts 163°
2026-05-08 09:23 51.24074 19.95371 37086 ft 470 kts 163°
2026-05-08 09:24 51.17918 19.98775 37086 ft 470 kts 163°
2026-05-08 09:24 51.11695 20.02214 37086 ft 470 kts 163°
2026-05-08 09:25 51.05514 20.05622 37087 ft 469 kts 163°
2026-05-08 09:25 50.99310 20.09035 37086 ft 469 kts 163°
2026-05-08 09:26 50.93147 20.12416 37086 ft 469 kts 163°
2026-05-08 09:26 50.86927 20.15817 37090 ft 470 kts 163°
2026-05-08 09:27 50.80703 20.19208 37087 ft 470 kts 163°
2026-05-08 09:27 50.74522 20.22570 37085 ft 470 kts 163°
2026-05-08 09:28 50.68350 20.25916 37088 ft 470 kts 163°
2026-05-08 09:28 50.62085 20.29304 37086 ft 470 kts 163°
2026-05-08 09:29 50.55870 20.32655 37081 ft 470 kts 163°
2026-05-08 09:29 50.49652 20.36000 37083 ft 470 kts 163°
2026-05-08 09:30 50.43432 20.39335 37084 ft 470 kts 163°
2026-05-08 09:30 50.37226 20.42654 37086 ft 470 kts 164°
2026-05-08 09:31 50.31006 20.45969 37081 ft 470 kts 164°
2026-05-08 09:31 50.24800 20.49269 37083 ft 470 kts 164°
2026-05-08 09:32 50.18599 20.52557 37090 ft 470 kts 164°
2026-05-08 09:32 50.12345 20.55864 37091 ft 471 kts 164°
2026-05-08 09:33 50.06180 20.59266 37090 ft 472 kts 162°
2026-05-08 09:33 49.99984 20.62918 37085 ft 472 kts 162°
2026-05-08 09:34 49.93776 20.66559 37079 ft 472 kts 163°
2026-05-08 09:34 49.87522 20.70195 37082 ft 472 kts 163°
2026-05-08 09:35 49.81481 20.73693 37079 ft 472 kts 163°
2026-05-08 09:35 49.75295 20.77264 37082 ft 472 kts 163°
2026-05-08 09:36 49.69132 20.80807 37075 ft 472 kts 163°
2026-05-08 09:36 49.64003 20.83749 37076 ft 472 kts 163°
2026-05-08 09:37 49.56782 20.87882 37070 ft 473 kts 163°
2026-05-08 09:37 49.50568 20.91427 37071 ft 474 kts 163°
2026-05-08 09:38 49.44377 20.94949 37068 ft 474 kts 163°
2026-05-08 09:38 49.38241 20.98432 37062 ft 475 kts 163°
2026-05-08 09:39 49.31945 21.01749 36959 ft 473 kts 168°
2026-05-08 09:39 49.25562 21.04449 36980 ft 473 kts 168°
2026-05-08 09:40 49.19199 21.07146 37054 ft 474 kts 168°
2026-05-08 09:40 49.12888 21.09813 37059 ft 474 kts 168°
2026-05-08 09:41 49.06456 21.12517 37069 ft 475 kts 168°
2026-05-08 09:41 49.00026 21.15212 37071 ft 475 kts 168°
2026-05-08 09:42 48.93623 21.17892 37078 ft 475 kts 169°
2026-05-08 09:42 48.87197 21.20570 37065 ft 475 kts 168°
2026-05-08 09:43 48.80770 21.23246 37073 ft 475 kts 169°
2026-05-08 09:43 48.74399 21.25888 37055 ft 475 kts 169°
2026-05-08 09:44 48.67996 21.28539 37062 ft 475 kts 169°
2026-05-08 09:44 48.61608 21.31175 37058 ft 474 kts 169°
2026-05-08 09:45 48.55215 21.33803 37056 ft 474 kts 169°
2026-05-08 09:45 48.48813 21.36432 37050 ft 474 kts 169°
2026-05-08 09:46 48.42546 21.38999 37048 ft 475 kts 169°
2026-05-08 09:46 48.36056 21.41648 37048 ft 475 kts 169°
2026-05-08 09:47 48.29655 21.44255 37035 ft 475 kts 169°
2026-05-08 09:47 48.23287 21.46842 37041 ft 475 kts 169°
2026-05-08 09:48 48.16891 21.49435 37046 ft 474 kts 169°
2026-05-08 09:48 48.10505 21.52016 37041 ft 474 kts 169°
2026-05-08 09:49 48.04138 21.54582 37045 ft 474 kts 169°
2026-05-08 09:49 47.97764 21.57146 37051 ft 474 kts 169°
2026-05-08 09:50 47.91353 21.59716 37043 ft 474 kts 169°
2026-05-08 09:50 47.84965 21.62271 37055 ft 475 kts 169°
2026-05-08 09:51 47.78540 21.64836 37043 ft 474 kts 169°
2026-05-08 09:51 47.72068 21.67413 37046 ft 474 kts 171°
2026-05-08 09:52 47.65688 21.69946 37051 ft 473 kts 171°
2026-05-08 09:52 47.59323 21.72465 37052 ft 473 kts 171°
2026-05-08 09:53 47.52943 21.74986 37053 ft 472 kts 171°
2026-05-08 09:53 47.46600 21.77484 37062 ft 472 kts 171°
2026-05-08 09:54 47.40203 21.79999 37059 ft 472 kts 171°
2026-05-08 09:54 47.34923 21.82070 37050 ft 471 kts 171°
2026-05-08 09:55 47.27471 21.84981 37038 ft 472 kts 171°
2026-05-08 09:55 47.21140 21.87555 37051 ft 473 kts 169°
2026-05-08 09:56 47.14813 21.90344 37064 ft 473 kts 169°
2026-05-08 09:56 47.08512 21.93086 37077 ft 473 kts 169°
2026-05-08 09:57 46.98983 21.97187 37069 ft 472 kts 169°
2026-05-08 09:57 46.92655 21.99898 37054 ft 471 kts 169°
2026-05-08 09:58 46.86329 22.02606 37041 ft 471 kts 169°
2026-05-08 09:58 46.79994 22.05311 37058 ft 471 kts 169°
2026-05-08 09:59 46.73595 22.08037 37041 ft 471 kts 169°
2026-05-08 09:59 46.67313 22.10705 37044 ft 471 kts 169°
2026-05-08 10:00 46.62039 22.12939 37051 ft 472 kts 169°
2026-05-08 10:00 46.55732 22.15605 37052 ft 471 kts 169°
2026-05-08 10:01 46.48370 22.18710 37048 ft 470 kts 169°
2026-05-08 10:01 46.42097 22.21348 37054 ft 470 kts 169°
2026-05-08 10:02 46.35767 22.24006 37052 ft 470 kts 169°
2026-05-08 10:02 46.30533 22.26196 37048 ft 471 kts 169°
2026-05-08 10:03 46.24213 22.28837 37045 ft 471 kts 169°
2026-05-08 10:03 46.16872 22.31894 37050 ft 470 kts 169°
2026-05-08 10:04 46.11620 22.34078 37046 ft 470 kts 169°
2026-05-08 10:04 46.05324 22.36690 37040 ft 469 kts 169°
2026-05-08 10:05 45.97987 22.39725 37037 ft 470 kts 169°
2026-05-08 10:05 45.92753 22.41884 37042 ft 470 kts 169°
2026-05-08 10:06 45.86382 22.44508 37047 ft 469 kts 169°
2026-05-08 10:06 45.80089 22.47095 37049 ft 469 kts 169°
2026-05-08 10:07 45.73790 22.49677 37047 ft 469 kts 169°
2026-05-08 10:07 45.67503 22.52247 37047 ft 469 kts 168°
2026-05-08 10:08 45.60179 22.55235 37047 ft 469 kts 169°
2026-05-08 10:08 45.54966 22.57357 37044 ft 469 kts 168°
2026-05-08 10:09 45.48666 22.59915 37042 ft 469 kts 168°
2026-05-08 10:09 45.42360 22.62470 37052 ft 469 kts 168°
2026-05-08 10:10 45.36087 22.65007 37054 ft 469 kts 169°
2026-05-08 10:10 45.29749 22.67563 37051 ft 468 kts 169°
2026-05-08 10:11 45.23450 22.70095 37058 ft 468 kts 169°
2026-05-08 10:11 45.17169 22.72617 37059 ft 468 kts 169°
2026-05-08 10:12 45.10854 22.75147 37059 ft 467 kts 169°
2026-05-08 10:12 45.04584 22.77652 37038 ft 468 kts 169°
2026-05-08 10:13 44.98371 22.80128 37024 ft 469 kts 169°
2026-05-08 10:13 44.92112 22.82620 37034 ft 468 kts 169°
2026-05-08 10:14 44.85827 22.85113 37029 ft 468 kts 169°
2026-05-08 10:14 44.79518 22.87611 37015 ft 468 kts 169°
2026-05-08 10:15 44.73184 22.90115 37006 ft 467 kts 169°
2026-05-08 10:15 44.66956 22.92571 37005 ft 467 kts 169°
2026-05-08 10:16 44.60667 22.95042 37004 ft 467 kts 169°
2026-05-08 10:16 44.54400 22.97503 37005 ft 467 kts 169°
2026-05-08 10:17 44.48093 22.99971 37005 ft 466 kts 169°
2026-05-08 10:17 44.41852 23.02407 37001 ft 466 kts 169°
2026-05-08 10:18 44.35577 23.04853 37000 ft 466 kts 169°
2026-05-08 10:18 44.29286 23.07300 36998 ft 466 kts 169°
2026-05-08 10:19 44.23056 23.09717 36997 ft 467 kts 169°
2026-05-08 10:20 44.13644 23.13359 36992 ft 467 kts 169°
2026-05-08 10:20 44.07349 23.15788 36986 ft 467 kts 169°
2026-05-08 10:21 44.01074 23.18206 36983 ft 466 kts 169°
2026-05-08 10:21 43.94781 23.20624 36990 ft 466 kts 169°
2026-05-08 10:22 43.88512 23.23026 36993 ft 464 kts 169°
2026-05-08 10:22 43.82245 23.25419 36998 ft 463 kts 169°
2026-05-08 10:23 43.76011 23.27719 37002 ft 464 kts 170°
2026-05-08 10:23 43.69732 23.30018 37000 ft 464 kts 169°
2026-05-08 10:24 43.63498 23.32301 37001 ft 464 kts 169°
2026-05-08 10:24 43.57222 23.34597 37003 ft 464 kts 169°
2026-05-08 10:25 43.50986 23.36874 37008 ft 463 kts 169°
2026-05-08 10:25 43.44721 23.39158 37012 ft 463 kts 169°
2026-05-08 10:26 43.38463 23.41434 37016 ft 463 kts 169°
2026-05-08 10:26 43.32249 23.43690 37021 ft 463 kts 169°
2026-05-08 10:27 43.26009 23.45948 37022 ft 464 kts 169°
2026-05-08 10:27 43.19759 23.48208 37034 ft 463 kts 169°
2026-05-08 10:28 43.13531 23.50453 37052 ft 464 kts 169°
2026-05-08 10:28 43.07243 23.52716 37063 ft 464 kts 169°
2026-05-08 10:29 43.00996 23.54960 37070 ft 463 kts 169°
2026-05-08 10:29 42.94778 23.57189 37078 ft 463 kts 169°
2026-05-08 10:30 42.88508 23.59431 37079 ft 463 kts 169°
2026-05-08 10:30 42.82220 23.61674 37072 ft 464 kts 169°
2026-05-08 10:31 42.75943 23.63911 37073 ft 464 kts 169°
2026-05-08 10:31 42.69677 23.66137 37061 ft 464 kts 170°
2026-05-08 10:32 42.63369 23.68376 37073 ft 465 kts 170°
2026-05-08 10:32 42.57133 23.70614 37070 ft 465 kts 169°
2026-05-08 10:33 42.50900 23.73179 37075 ft 466 kts 168°
2026-05-08 10:33 42.44685 23.75730 37072 ft 466 kts 168°
2026-05-08 10:34 42.38428 23.78293 37079 ft 466 kts 168°
2026-05-08 10:34 42.32200 23.80843 37080 ft 466 kts 168°
2026-05-08 10:35 42.25990 23.83381 37089 ft 467 kts 168°
2026-05-08 10:35 42.19761 23.85922 37087 ft 467 kts 168°
2026-05-08 10:36 42.13520 23.88460 37089 ft 468 kts 168°
2026-05-08 10:36 42.07270 23.90999 37085 ft 467 kts 168°
2026-05-08 10:37 42.01036 23.93526 37071 ft 467 kts 168°
2026-05-08 10:37 41.97950 23.94774 37267 ft 467 kts 168°
2026-05-08 10:37 41.94847 23.96028 36842 ft 465 kts 168°
2026-05-08 10:37 41.91685 23.97305 36992 ft 466 kts 168°
2026-05-08 10:38 41.88600 23.98551 37233 ft 467 kts 168°
2026-05-08 10:38 41.82335 24.01077 37116 ft 465 kts 168°
2026-05-08 10:39 41.76100 24.03582 37107 ft 467 kts 168°
2026-05-08 10:39 41.69866 24.06082 37104 ft 467 kts 168°
2026-05-08 10:40 41.63625 24.08584 37098 ft 467 kts 168°
2026-05-08 10:40 41.57392 24.11075 37090 ft 467 kts 168°
2026-05-08 10:41 41.51171 24.13971 37099 ft 472 kts 163°
2026-05-08 10:41 41.45070 24.17139 37092 ft 472 kts 164°
2026-05-08 10:42 41.38927 24.20320 37099 ft 472 kts 164°
2026-05-08 10:42 41.32780 24.23495 37089 ft 473 kts 164°
2026-05-08 10:43 41.26606 24.26684 37092 ft 474 kts 164°
2026-05-08 10:43 41.20495 24.29828 37086 ft 474 kts 164°
2026-05-08 10:44 41.14285 24.33020 37084 ft 474 kts 164°
2026-05-08 10:44 41.08138 24.36172 37087 ft 475 kts 164°
2026-05-08 10:45 41.01948 24.39340 37077 ft 475 kts 164°
2026-05-08 10:45 40.95786 24.42491 37084 ft 476 kts 165°
2026-05-08 10:46 40.89581 24.45653 37088 ft 476 kts 164°
2026-05-08 10:46 40.83347 24.48825 37085 ft 476 kts 165°
2026-05-08 10:47 40.77152 24.51972 37087 ft 476 kts 165°
2026-05-08 10:47 40.70975 24.55101 37085 ft 476 kts 165°
2026-05-08 10:48 40.64783 24.58233 37080 ft 476 kts 165°
2026-05-08 10:48 40.58629 24.61337 37083 ft 477 kts 165°
2026-05-08 10:49 40.52417 24.64466 37074 ft 477 kts 165°
2026-05-08 10:49 40.46164 24.67611 37067 ft 477 kts 166°
2026-05-08 10:50 40.39998 24.70706 37076 ft 477 kts 166°
2026-05-08 10:50 40.33802 24.73808 37068 ft 478 kts 166°
2026-05-08 10:51 40.27567 24.76922 37068 ft 479 kts 166°
2026-05-08 10:51 40.21344 24.80027 37066 ft 479 kts 166°
2026-05-08 10:52 40.15154 24.83107 37068 ft 479 kts 166°
2026-05-08 10:52 40.08918 24.86206 37070 ft 479 kts 166°
2026-05-08 10:53 40.02705 24.89288 37070 ft 480 kts 167°
2026-05-08 10:53 39.96432 24.92391 37073 ft 480 kts 167°
2026-05-08 10:54 39.90229 24.95456 37079 ft 480 kts 167°
2026-05-08 10:54 39.83904 24.98571 37081 ft 481 kts 167°
2026-05-08 10:55 39.77662 25.01646 37087 ft 480 kts 167°
2026-05-08 10:55 39.71443 25.04699 37086 ft 481 kts 167°
2026-05-08 10:56 39.65162 25.07775 37083 ft 481 kts 167°
2026-05-08 10:56 39.58934 25.10899 37084 ft 483 kts 164°
2026-05-08 10:57 39.52791 25.14566 37084 ft 486 kts 162°
2026-05-08 10:57 39.43637 25.20120 37088 ft 488 kts 162°
2026-05-08 10:58 39.37495 25.23835 37083 ft 488 kts 162°
2026-05-08 10:58 39.31342 25.27553 37088 ft 489 kts 162°
2026-05-08 10:59 39.25203 25.31255 37093 ft 488 kts 162°
2026-05-08 10:59 39.19080 25.34939 37098 ft 488 kts 162°
2026-05-08 11:00 39.12914 25.38640 37094 ft 491 kts 162°
2026-05-08 11:00 39.06703 25.42362 37099 ft 491 kts 162°
2026-05-08 11:01 39.00542 25.46049 37098 ft 492 kts 162°
2026-05-08 11:01 38.94337 25.49753 37100 ft 492 kts 162°
2026-05-08 11:02 38.85000 25.55315 37106 ft 493 kts 162°
2026-05-08 11:03 38.78746 25.59029 37104 ft 494 kts 162°
2026-05-08 11:03 38.72504 25.62731 37104 ft 493 kts 162°
2026-05-08 11:04 38.66218 25.66452 37103 ft 495 kts 163°
2026-05-08 11:04 38.59964 25.70144 37109 ft 495 kts 162°
2026-05-08 11:05 38.53691 25.73844 37112 ft 496 kts 162°
2026-05-08 11:05 38.47416 25.77539 37116 ft 495 kts 163°
2026-05-08 11:06 38.41180 25.81204 37122 ft 495 kts 162°
2026-05-08 11:06 38.34901 25.84882 37129 ft 497 kts 163°
2026-05-08 11:07 38.28585 25.88578 37131 ft 498 kts 163°
2026-05-08 11:07 38.22245 25.91925 37134 ft 491 kts 168°
2026-05-08 11:08 38.15775 25.94869 37136 ft 494 kts 168°
2026-05-08 11:08 38.09303 25.97815 37131 ft 494 kts 168°
2026-05-08 11:09 38.02824 26.00760 37132 ft 495 kts 168°
2026-05-08 11:09 37.96314 26.03717 37132 ft 494 kts 168°
2026-05-08 11:10 37.89879 26.06631 37128 ft 495 kts 168°
2026-05-08 11:10 37.83357 26.09582 37128 ft 497 kts 168°
2026-05-08 11:11 37.76836 26.12530 36736 ft 495 kts 168°
2026-05-08 11:11 37.73579 26.14004 36400 ft 491 kts 168°
2026-05-08 11:11 37.70380 26.15447 35986 ft 488 kts 168°
2026-05-08 11:11 37.67191 26.16879 35539 ft 486 kts 168°
2026-05-08 11:12 37.63963 26.18327 35012 ft 488 kts 169°
2026-05-08 11:12 37.60732 26.19775 34439 ft 489 kts 169°
2026-05-08 11:12 37.57531 26.21208 33845 ft 489 kts 169°
2026-05-08 11:12 37.54327 26.22643 33280 ft 489 kts 169°
2026-05-08 11:13 37.51168 26.24052 32683 ft 490 kts 168°
2026-05-08 11:13 37.47931 26.25496 32045 ft 490 kts 168°
2026-05-08 11:13 37.44757 26.26910 31397 ft 491 kts 167°
2026-05-08 11:13 37.41517 26.28355 30729 ft 492 kts 167°
2026-05-08 11:14 37.38306 26.29788 30043 ft 493 kts 166°
2026-05-08 11:14 37.35038 26.31245 29319 ft 494 kts 166°